Location: Foligno
(42.9600°N, 12.7050°E)
Time: 11:16:51
(UTC+02:00)

ISS - Pass Details

Date: 10 May 2021
Orbit: 417 x 422 km, 51.6° (Epoch: 15 May)

Event Time Altitude Azimuth Distance (km) Brightness Sun altitude
Exits shadow 02:50:23 16° 327° (NNW) 1,173 -1.2 -24.8°
Maximum altitude 02:51:32 19° 353° (N) 1,067 -1.1 -24.7°
Drops below altitude 10° 02:54:03 10° 42° (NE) 1,506 0.1 -24.5°
Sets 02:56:35 0° 61° (ENE) 2,371 1.0 -24.3°
